Location: Ch�teau-Arnoux
(44.0814°N, 6.0027°E)
Time: 10:32:13
(UTC+00:00)

STARLINK-48 - Pass Details

Date: 15 November 2019
Orbit: 506 x 509 km, 53.0° (Epoch: 16 December)

Event Time Altitude Azimuth Distance (km) Brightness Sun altitude
Exits shadow 03:38:34 16° 124° (SE) 1,371 6.1 -30.8°
Drops below altitude 10° 03:40:44 10° 90° (E) 1,711 7.0 -30.5°
Enters shadow 04:42:19 -61° 234° (SW) 11,733 10.3 -19.4°
Maximum altitude 05:16:25 82° 326° (NW) 513 3.3 -13.4°
